Погода в Онеге

Погода в Онеге : погода сейчас, прогноз погоды и архив. Всё, что Вы хотите узнать о погоде в Онеге!

Хотите узнать прогноз погоды в Онеге? Тогда Вам сюда: Погода в Онеге

Поиск расширенной информации на нашем сайте:

Полезная информация: Монтаж систем отопления Раменское

Другие новости

Новости СМИ2

Главная страница сайта

Новости сайта

03.07.2017

Напоминаем, что на нашем специализированном сайте Метеоцентр.Азия вы можете получить высокодетализированные автоматические прогнозы погоды по пунктам России, СНГ и мира в авиационном формате (включающие направление и скорость ветра, видимость, явления погоды, количество и форму облачности, нижнюю и верхнюю границу облачности).

Рекомендуем: фальцевая кровля из рулонного материала.

Погода в Онеге - сегодня

Время (UTC), дата Ветер
(°,м/с) 
Видим.   Явления Облачность Т
(°С)
Тd
(°С)
f(%) Тe
(°С)
Pmin
(гПа)
dP
(гПа)
Po
(мм)
O2
(г/м3)
Тmin Tmax R s Состояние
почвы
09 19.09.17 120 (ЮВ) 6-11{15}  20000 м  слаб. ливневой дождь  10/5 300 м кучево-дожд., средняя 
[Cb cap|Ac As]
+3.9   1004.5  0.3  752             
12 19.09.17 070 (В) 6-11{13}  20000 м  {ливн. осадки}  10/3 600 м средняя 
[Sc|Ac As]
+6 +3.7 85 +4  1006.1  1.7  754  297           
15 19.09.17 070 (В) 5-10{12}  20000 м  слаб. ливневой дождь  10/4 300 м кучево-дожд., средняя 
[Cb cap|Ac As]
+5.5 +3.4 86 +3  1008.7  2.6  755  298    +6     
18 19.09.17 060 (СВ) 5{11}  20000 м  {ливн. осадки}  10/10 600 м кучево-дожд. 
[Cb cap]
+5.7 +2.9 82 +4  1010.9  2.1  757  298           
21 19.09.17 030 (СВ) 20000 м    10/10 700 м 
[Sc]
+5.8 +3.1 83 +4  1012.6  1.7  758  299           
00 20.09.17 030 (СВ) 20000 м    9/3 600 м средняя 
[Sc|Ac trans]
+5.5 +2.7 82 +4  1014.7  2.1  760  300           
03 20.09.17 030 (СВ) 20000 м    10/4 600 м средняя 
[Sc|Ac As]
+5.2 +2.6 83 +5  1017.1  2.4  762  301  +5.1    0.6     
06 20.09.17 030 (СВ) 20000 м    10/4 1000 м средняя 
[Sc|Ac lent]
+5.5 +2.7 82 +5  1019.8  2.7  764  301  +5.1         
09 20.09.17 040 (СВ) 20000 м    10/4 600 м средняя 
[Sc|Ac lent]
+6.8 +2.9 76 +6  1022.4  2.6  766  301           
12 20.09.17 070 (В) 20000 м    9/4 1000 м средняя 
[Sc|Ac lent]
+8.5 +3.8 72 +9  1024.5  2.1  767  299           
15 20.09.17 060 (СВ) 20000 м    6/4 1000 м средняя 
[Sc|Ac lent]
+7.6 +3.9 77 +9  1026.6  2.1  769  301    +9.1       
18 20.09.17 030 (СВ) 20000 м    10/0 средняя 
[Ac lent]
+5.7 +4.1 89 +7  1028.4  1.7  770  303           
21 20.09.17 080 (В) 20000 м    ясно 
+4.7 +2.3 84 +6  1029.9  1.6  771  305           
00 21.09.17 070 (В) 20000 м    ясно 
+3.3 +0.8 84 +3  1032.1  2.2  773  308           
03 21.09.17 070 (В) 20000 м    ясно 
+0.3 -0.6 94 1034  1.9  774  312  +0.2         
06 21.09.17 080 (В) 20000 м    ясно 
+4.4 +1.7 83 +4  1036.2  2.2  776  308           
09 21.09.17 120 (ЮВ) 20000 м    3/3 600 м 
[Sc]
+9.1 +2.1 62 +9  1037  0.8  777  303           
12 21.09.17 080 (В) 20000 м    9/8 1080 м средняя 
[Sc|Ac trans]
+8.5 +1.2 60 +10  1038  777  304           
15 21.09.17 120 (ЮВ) 20000 м    6/3 1000 м верхняя 
[Sc|Cs]
+6.5 +2.2 74 +6  1038.4  0.4  778  306    +9.7       
18 21.09.17 120 (ЮВ) 20000 м    ясно 
+3.4 +1.4 87 +3  1039.4  778  310           
21 21.09.17 120 (ЮВ) 20000 м    ясно 
+2.4 +1.5 94 +3  1040.1  0.7  779  311           
00 22.09.17 120 (ЮВ) 20000 м    ясно 
+1.4 +0.7 95 +2  1041  0.8  780  312           
03 22.09.17 170 (Ю) н/о    н/о 
+3.9 +2.4 90 +5  1040.9  780  309  +1.3         
06 22.09.17 120 (ЮВ) 20000 м    10/0 средняя 
[Ac lent]
+5.8 +3.3 84 +6  1040.4  -0.6  779  307           
09 22.09.17 120 (ЮВ) 20000 м    9/3 1000 м средняя 
[Sc|Ac lent]
+9.9 +4.4 69 +10  1038.9  -1.4  778  302           
Время (UTC), дата Ветер
(°,м/с) 
Видим.   Явления Облачность Т
(°С)
Тd
(°С)
f(%) Тe
(°С)
Pmin
(гПа)
dP
(гПа)
Po
(мм)
O2
(г/м3)
Тmin Tmax R s Состояние
почвы

Для получения пояснительной информации подведите курсор к названию столбца.

ПОГОДА в Онеге - архив

Всё, что Вы хотите узнать о погоде в Онеге - удобно и подробно!

Выберите нужную дату (начиная с 1 января 2015* года) и нажмите кнопку "Найти".
Будут отображены архивные сводки погоды по пункту Онега, начиная с указанной даты.


Отображать данные в формате CSV (для использования в таблицах Excel)


Внимание! Наш архив погоды предназначен исключительно для личного некоммерческого использования в познавательных целях. Если Вам необходимы официальные справки о состоянии погоды (для производственных, юридических, коммерческих и т.п. целей), обращайтесь в органы Росгидромета.

*Примечание: данная дата относится к архиву по метеостанциям СССР (Россия, СНГ, Балтия).
Архив по метеостанциям Зарубежной Европы и Азии (кроме Китая) хранится 10 дней, по другим регионам земного шара (Китай, Африка, Америка, Австралия, Океания) - 1 день.

Онега - район местоположения метеостанции


Название, широта, долгота, высота метеостанции:
Онега 63.9°ш. 38.1°д. 13 м над ур. моря [Российская Федерация]

Дополнительная информация

В oтличие oт бoльшинства пoгoдных сайтoв мы публикуем пoдрoбную метеoинфoрмацию в детальнoм прoфессиoнальнoм фoрмате.

Характеристики температуры и влажнoсти вoздуха измеряются на высoте 2 м в тени вдали oт зданий и деревьев.
Скoрoсть ветра измеряется на высoте 10 м (на урoвне рoста челoвека скoрoсть ветра ниже в 1.5-2 раза). Если метеoстанция нахoдится в гoрoде или в лесу, тo скoрoсть ветра занижена на 2-4 м/с пo сравнению с oткрытым местoм. Скoрoсть ветра над акватoриями крупных рек и oзёр, а также на вершинах хoлмoв на 2-5 м/с выше, чем в oбычных услoвиях.
Атмoсфернoе давление в разных тoчках местнoсти мoжет значительнo oтличаться oт давления на метеoстанции, в зависимoсти oт услoвий рельефа (при пoдъёме на 10 м давление пoнижается примернo на 1 мм рт.ст.).